FW7257 Weather Reports


Display with metric or nautical units.
time (UTC)temp
F
wind
direction
speed
MPH
gust
MPH
rain 1hr
in
rain 24hr
in
rain mn
in
humidity
%
barometer
mb
20260509174341 69 0 0.0 1.0 0.00 0.00 0.00 77 1013.7
20260509173840 68 0 0.0 1.0 0.00 0.00 0.00 81 1013.9
20260509173344 67 0 0.0 1.0 0.00 0.00 0.00 81 1013.9
20260509172840 67 0 0.0 1.0 0.00 0.00 0.00 81 1014.0
20260509172338 66 0 0.0 1.0 0.00 0.00 0.00 83 1014.2
20260509171839 66 0 0.0 1.0 0.00 0.00 0.00 83 1014.2
20260509171343 66 0 0.0 1.0 0.00 0.00 0.00 82 1014.4
20260509170845 66 0 0.0 1.0 0.00 0.00 0.00 82 1014.3
20260509170340 66 0 0.0 1.0 0.00 0.00 0.00 82 1014.4
20260509165841 66 0 0.0 0.0 0.00 0.00 0.00 83 1014.4
20260509165342 66 0 0.0 1.0 0.00 0.00 0.00 84 1014.2
20260509164842 66 0 0.0 1.0 0.00 0.00 0.00 83 1014.3
20260509164341 66 0 0.0 1.0 0.00 0.00 0.00 83 1014.2
20260509163836 66 0 0.0 2.0 0.00 0.00 0.00 85 1014.5
20260509163344 65 0 0.0 2.0 0.00 0.00 0.00 85 1014.4
20260509162838 65 0 0.0 1.0 0.00 0.00 0.00 85 1014.4
20260509162338 65 0 0.0 1.0 0.00 0.00 0.00 85 1014.5
20260509161835 65 0 0.0 1.0 0.00 0.00 0.00 86 1014.4
20260509161343 64 0 0.0 1.0 0.00 0.00 0.00 86 1014.4
20260509160840 64 0 0.0 1.0 0.00 0.00 0.00 87 1014.4
20260509160339 64 0 0.0 1.0 0.00 0.00 0.00 86 1014.4
20260509155836 64 0 0.0 1.0 0.00 0.00 0.00 87 1014.4
20260509155341 63 0 0.0 1.0 0.00 0.00 0.00 87 1014.4
20260509154841 63 0 0.0 1.0 0.00 0.00 0.00 88 1014.2
20260509154342 63 0 0.0 1.0 0.00 0.00 0.00 88 1014.2
20260509153841 63 0 0.0 1.0 0.00 0.00 0.00 87 1014.3
20260509153339 63 175 0.0 1.0 0.00 0.00 0.00 87 1014.4
20260509152836 63 0 0.0 1.0 0.00 0.00 0.00 87 1014.6
20260509152340 63 0 0.0 1.0 0.00 0.00 0.00 86 1014.8
20260509151840 64 0 0.0 1.0 0.00 0.00 0.00 86 1014.8
20260509151339 64 0 0.0 0.0 0.00 0.00 0.00 86 1014.9
20260509150841 63 0 0.0 0.0 0.00 0.00 0.00 86 1014.8
20260509150341 63 0 0.0 1.0 0.00 0.00 0.00 86 1014.9
20260509145838 63 0 0.0 1.0 0.00 0.00 0.00 87 1014.9
20260509145340 63 0 0.0 0.0 0.00 0.00 0.00 87 1014.9
20260509144841 63 0 0.0 0.0 0.00 0.00 0.00 87 1014.9
20260509144337 63 0 0.0 0.0 0.00 0.00 0.00 86 1014.9
20260509143837 63 0 0.0 0.0 0.00 0.00 0.00 87 1015.1
20260509143342 63 0 0.0 1.0 0.00 0.00 0.00 87 1015.0
20260509142837 62 0 0.0 1.0 0.00 0.00 0.00 87 1014.8
20260509142336 62 0 0.0 0.0 0.00 0.00 0.00 87 1014.8
20260509141838 62 0 0.0 1.0 0.00 0.00 0.00 86 1014.9
20260509141338 62 0 0.0 1.0 0.00 0.00 0.00 86 1014.8
20260509140839 62 0 0.0 1.0 0.00 0.00 0.00 86 1014.8
20260509140338 63 0 0.0 1.0 0.00 0.00 0.00 86 1014.7
20260509135837 62 0 0.0 1.0 0.00 0.00 0.00 86 1014.4
20260509135340 62 0 0.0 1.0 0.00 0.00 0.00 86 1014.2
20260509134841 62 229 0.0 1.0 0.00 0.00 0.00 86 1014.0
20260509134338 62 0 0.0 1.0 0.00 0.00 0.00 86 1013.9
20260509133838 62 0 0.0 3.0 0.00 0.00 0.00 86 1013.7
20260509133342 62 0 0.0 3.0 0.00 0.00 0.00 86 1013.6
20260509132837 62 233 1.0 1.0 0.00 0.00 0.00 86 1013.8
20260509132341 63 238 1.0 1.0 0.00 0.00 0.00 85 1014.0
20260509131836 63 240 0.0 1.0 0.00 0.00 0.00 86 1013.9
20260509131338 63 0 0.0 1.0 0.00 0.00 0.00 86 1014.1
20260509130839 63 0 0.0 1.0 0.00 0.00 0.00 86 1013.9
20260509130338 62 0 0.0 1.0 0.00 0.00 0.00 86 1013.8
20260509125841 62 0 0.0 1.0 0.00 0.00 0.00 87 1013.6
20260509125338 62 0 0.0 1.0 0.00 0.00 0.00 87 1013.6
20260509124838 61 0 0.0 1.0 0.00 0.00 0.00 87 1013.6
20260509124344 61 0 0.0 1.0 0.00 0.00 0.00 87 1013.6
20260509123837 61 0 0.0 1.0 0.00 0.00 0.00 88 1013.7
20260509123338 61 0 0.0 1.0 0.00 0.00 0.00 88 1013.7
20260509122840 61 0 0.0 1.0 0.00 0.00 0.00 88 1013.6
20260509122342 61 199 0.0 1.0 0.00 0.00 0.00 88 1013.7
20260509121838 60 199 0.0 1.0 0.00 0.00 0.00 88 1013.5
20260509121340 60 198 0.0 1.0 0.00 0.00 0.00 88 1013.5
20260509120839 60 0 0.0 1.0 0.00 0.00 0.00 88 1013.5
20260509120338 60 0 0.0 0.0 0.00 0.00 0.00 88 1013.7
20260509115842 60 0 0.0 0.0 0.00 0.00 0.00 88 1013.8
20260509115336 60 0 0.0 0.0 0.00 0.00 0.00 88 1013.8
20260509114838 60 0 0.0 1.0 0.00 0.00 0.00 88 1013.7
20260509114337 60 0 0.0 1.0 0.00 0.00 0.00 89 1013.7
20260509113843 60 0 0.0 1.0 0.00 0.00 0.00 89 1013.7
20260509113338 60 0 0.0 3.0 0.00 0.00 0.00 89 1013.7
20260509112841 60 0 0.0 3.0 0.00 0.00 0.00 89 1013.8
20260509112341 60 0 0.0 0.0 0.00 0.00 0.00 89 1013.6
20260509111840 60 0 0.0 0.0 0.00 0.00 0.00 89 1013.9
20260509111339 59 0 0.0 0.0 0.00 0.00 0.00 89 1013.7
20260509110836 59 0 0.0 0.0 0.00 0.00 0.00 88 1013.3
20260509110341 59 0 0.0 1.0 0.00 0.00 0.00 88 1013.7
20260509105838 59 0 0.0 1.0 0.00 0.00 0.00 88 1013.3
20260509105342 59 0 0.0 1.0 0.00 0.00 0.00 88 1013.5
20260509104835 59 0 0.0 1.0 0.00 0.00 0.00 88 1013.4
20260509104339 59 0 0.0 1.0 0.00 0.00 0.00 88 1013.3
20260509103837 59 0 0.0 1.0 0.00 0.00 0.00 88 1013.3
20260509103342 59 0 0.0 1.0 0.00 0.00 0.00 88 1013.2
20260509102836 59 0 0.0 1.0 0.00 0.00 0.00 89 1013.2
20260509102343 59 0 0.0 1.0 0.00 0.00 0.00 89 1013.4
20260509101838 59 0 0.0 0.0 0.00 0.00 0.00 89 1013.6
20260509101339 59 0 0.0 0.0 0.00 0.00 0.00 89 1013.6
20260509100836 59 0 0.0 0.0 0.00 0.00 0.00 89 1013.7
20260509100340 59 0 0.0 0.0 0.00 0.00 0.00 89 1014.1
20260509095839 59 0 0.0 0.0 0.00 0.00 0.00 89 1014.1
20260509095336 59 0 0.0 0.0 0.00 0.00 0.00 89 1014.0
20260509094837 59 0 0.0 0.0 0.00 0.00 0.00 90 1013.7
20260509094341 59 0 0.0 0.0 0.00 0.00 0.00 90 1014.0
20260509093839 59 0 0.0 0.0 0.00 0.00 0.00 90 1014.2
20260509093336 59 0 0.0 0.0 0.00 0.00 0.00 90 1014.1
20260509092837 58 0 0.0 0.0 0.00 0.00 0.00 90 1013.9
20260509092338 58 0 0.0 0.0 0.00 0.00 0.00 90 1013.7
20260509091839 58 0 0.0 0.0 0.00 0.00 0.00 90 1013.8
20260509091335 58 0 0.0 0.0 0.00 0.00 0.00 90 1013.9
20260509090838 58 0 0.0 0.0 0.00 0.00 0.00 90 1013.8
20260509090338 58 0 0.0 0.0 0.00 0.00 0.00 90 1013.5
20260509085836 58 0 0.0 0.0 0.00 0.00 0.00 90 1013.7
20260509085335 58 0 0.0 0.0 0.00 0.00 0.00 90 1013.6
20260509084836 58 0 0.0 0.0 0.00 0.00 0.00 90 1013.7
20260509084340 58 0 0.0 0.0 0.00 0.00 0.00 90 1013.8
20260509083840 58 0 0.0 0.0 0.00 0.00 0.00 90 1013.7
20260509083340 58 0 0.0 0.0 0.00 0.00 0.00 91 1013.6
20260509082838 58 0 0.0 0.0 0.00 0.00 0.00 91 1013.5
20260509082341 58 0 0.0 1.0 0.00 0.00 0.00 91 1013.3
20260509081840 58 0 0.0 1.0 0.00 0.00 0.00 91 1013.3
20260509081335 57 0 0.0 0.0 0.00 0.00 0.00 91 1013.2
20260509080840 57 0 0.0 0.0 0.00 0.00 0.00 91 1013.4
20260509080341 57 0 0.0 0.0 0.00 0.00 0.00 91 1013.4
20260509075838 57 0 0.0 0.0 0.00 0.00 0.00 91 1013.5
20260509075335 57 0 0.0 0.0 0.00 0.00 0.00 90 1013.4
20260509074836 57 0 0.0 0.0 0.00 0.00 0.00 90 1013.5
20260509074336 57 0 0.0 0.0 0.00 0.00 0.00 90 1013.3
20260509073837 57 0 0.0 0.0 0.00 0.00 0.00 90 1013.2
20260509073338 57 0 0.0 0.0 0.00 0.00 0.00 89 1013.0
20260509072841 57 0 0.0 0.0 0.00 0.00 0.00 89 1013.0
20260509072336 57 0 0.0 0.0 0.00 0.00 0.00 89 1013.3
20260509071838 58 0 0.0 0.0 0.00 0.00 0.00 89 1013.2
20260509071342 58 0 0.0 0.0 0.00 0.00 0.00 89 1013.2
20260509070839 58 0 0.0 0.0 0.00 0.00 0.00 89 1013.3
20260509070337 58 0 0.0 0.0 0.00 0.00 0.00 89 1013.4
20260509065842 58 0 0.0 0.0 0.00 0.00 0.00 88 1013.7
20260509065341 58 0 0.0 0.0 0.00 0.00 0.00 88 1013.7
20260509064838 58 0 0.0 0.0 0.00 0.00 0.00 88 1013.9
20260509064339 59 0 0.0 0.0 0.00 0.00 0.00 88 1013.9
20260509063837 59 0 0.0 0.0 0.00 0.00 0.00 88 1014.0
20260509063337 59 0 0.0 0.0 0.00 0.00 0.00 88 1014.1
20260509062840 59 0 0.0 0.0 0.00 0.00 0.00 88 1014.2
20260509062344 59 0 0.0 0.0 0.00 0.00 0.00 89 1014.3
20260509061840 59 0 0.0 0.0 0.00 0.00 0.00 88 1014.4
20260509061341 58 0 0.0 0.0 0.00 0.00 0.00 89 1014.7
20260509060845 58 0 0.0 0.0 0.00 0.00 0.00 89 1014.7
20260509060342 58 0 0.0 0.0 0.00 0.00 0.00 89 1014.8
20260509055836 58 0 0.0 0.0 0.00 0.00 0.00 89 1014.8
20260509055340 58 0 0.0 0.0 0.00 0.00 0.00 89 1015.0
20260509054841 58 0 0.0 0.0 0.00 0.00 0.00 89 1014.8
20260509054336 58 0 0.0 0.0 0.00 0.00 0.00 89 1014.9
20260509053843 58 0 0.0 0.0 0.00 0.00 0.00 89 1014.8
20260509053336 58 0 0.0 0.0 0.00 0.00 0.00 89 1014.9
20260509052839 58 0 0.0 0.0 0.00 0.00 0.00 88 1014.8
20260509052343 58 0 0.0 0.0 0.00 0.00 0.00 88 1014.8
20260509051838 58 0 0.0 0.0 0.00 0.00 0.00 88 1014.8
20260509051336 58 0 0.0 0.0 0.00 0.00 0.00 88 1014.9
20260509050840 58 0 0.0 0.0 0.00 0.00 0.00 88 1015.0
20260509050340 58 0 0.0 0.0 0.00 0.00 0.00 87 1014.9
20260509045838 58 0 0.0 0.0 0.00 0.00 0.00 87 1015.0
20260509045343 59 0 0.0 0.0 0.00 0.00 0.00 88 1015.1
20260509044838 59 0 0.0 0.0 0.00 0.00 0.00 88 1015.0
20260509044341 58 0 0.0 0.0 0.00 0.00 0.00 87 1014.9
20260509043842 59 0 0.0 0.0 0.00 0.00 0.00 87 1015.1
20260509043335 59 0 0.0 0.0 0.00 0.00 0.00 87 1015.2
20260509042839 59 0 0.0 0.0 0.00 0.00 0.00 86 1014.9
20260509042337 59 0 0.0 0.0 0.00 0.00 0.00 86 1015.1
20260509041842 59 0 0.0 0.0 0.00 0.00 0.00 85 1015.1
20260509041341 59 0 0.0 0.0 0.00 0.00 0.00 85 1015.4
20260509040836 59 0 0.0 0.0 0.00 0.00 0.00 85 1015.5
20260509040339 59 0 0.0 0.0 0.00 0.00 0.00 85 1015.5
20260509035841 60 0 0.0 0.0 0.00 0.00 0.00 84 1015.5
20260509035340 60 0 0.0 0.0 0.00 0.00 0.00 84 1015.4
20260509034837 60 0 0.0 0.0 0.00 0.00 0.00 84 1015.6
20260509034339 60 0 0.0 0.0 0.00 0.00 0.00 84 1015.6
20260509033837 60 0 0.0 0.0 0.00 0.00 0.00 84 1015.7
20260509033338 60 0 0.0 0.0 0.00 0.00 0.00 83 1015.8
20260509032839 61 0 0.0 0.0 0.00 0.00 0.00 83 1015.8
20260509032340 61 0 0.0 0.0 0.00 0.00 0.00 82 1016.0
20260509031839 61 0 0.0 0.0 0.00 0.00 0.00 82 1015.9
20260509031337 61 0 0.0 0.0 0.00 0.00 0.00 82 1016.0
20260509030839 61 0 0.0 0.0 0.00 0.00 0.00 81 1016.0
20260509030337 61 0 0.0 0.0 0.00 0.00 0.00 82 1016.2
20260509025842 61 0 0.0 0.0 0.00 0.00 0.00 81 1016.2
20260509025336 62 0 0.0 0.0 0.00 0.00 0.00 80 1016.0
20260509024840 62 0 0.0 0.0 0.00 0.00 0.00 80 1016.1
20260509024340 62 0 0.0 0.0 0.00 0.00 0.00 79 1016.2
20260509023840 62 0 0.0 0.0 0.00 0.00 0.00 79 1016.1
20260509023334 62 0 0.0 0.0 0.00 0.00 0.00 79 1016.4
20260509022841 62 0 0.0 1.0 0.00 0.00 0.00 79 1016.3
20260509022341 62 0 0.0 1.0 0.00 0.00 0.00 79 1016.1
20260509021843 62 0 0.0 1.0 0.00 0.00 0.00 78 1016.1
20260509021341 63 0 0.0 0.0 0.00 0.00 0.00 78 1016.0
20260509020842 63 0 0.0 2.0 0.00 0.00 0.00 78 1016.1
20260509020340 63 0 0.0 2.0 0.00 0.00 0.00 77 1016.2
20260509015841 63 0 0.0 2.0 0.00 0.00 0.00 77 1015.9
20260509015341 63 0 0.0 2.0 0.00 0.00 0.00 77 1015.8
20260509014840 63 0 0.0 2.0 0.00 0.00 0.00 76 1015.9
20260509014342 63 0 0.0 2.0 0.00 0.00 0.00 76 1016.0
20260509013840 63 243 0.0 1.0 0.00 0.00 0.00 76 1016.0
20260509013340 63 0 0.0 2.0 0.00 0.00 0.00 75 1015.7
20260509012842 64 243 1.0 2.0 0.00 0.00 0.00 75 1015.7
20260509012336 64 0 0.0 2.0 0.00 0.00 0.00 75 1015.8
20260509011837 64 231 1.0 2.0 0.00 0.00 0.00 75 1015.8
20260509011340 64 0 0.0 2.0 0.00 0.00 0.00 74 1015.8
20260509010841 64 0 0.0 1.0 0.00 0.00 0.00 74 1015.8
20260509010341 64 0 0.0 2.0 0.00 0.00 0.00 74 1015.9
20260509005840 64 198 1.0 2.0 0.00 0.00 0.00 73 1015.6
20260509005337 64 0 0.0 2.0 0.00 0.00 0.00 73 1015.7
20260509004838 64 225 0.0 1.0 0.00 0.00 0.00 73 1015.7
20260509004340 64 224 0.0 2.0 0.00 0.00 0.00 73 1015.7
20260509003840 65 225 1.0 2.0 0.00 0.00 0.00 72 1015.7
20260509003339 65 0 0.0 1.0 0.00 0.00 0.00 72 1015.7
20260509002837 65 0 0.0 1.0 0.00 0.00 0.00 71 1015.6
20260509002342 65 0 0.0 2.0 0.00 0.00 0.00 71 1015.6
20260509001840 65 0 0.0 2.0 0.00 0.00 0.00 71 1015.6
20260509001341 65 0 0.0 2.0 0.00 0.00 0.00 71 1015.6
20260509000836 66 0 0.0 2.0 0.00 0.00 0.00 71 1015.6
20260509000340 66 234 1.0 2.0 0.00 0.00 0.00 70 1015.7
20260508235835 66 204 2.0 0.0 0.00 0.00 0.00 70 1015.6
20260508235340 66 0 0.0 1.0 0.00 0.00 0.00 70 1015.7
20260508234839 66 0 0.0 3.0 0.00 0.00 0.00 69 1015.6
20260508234338 66 0 0.0 3.0 0.00 0.00 0.00 69 1015.6
20260508233842 67 314 2.0 1.0 0.00 0.00 0.00 68 1015.5
20260508233337 67 0 0.0 1.0 0.00 0.00 0.00 69 1015.6
20260508232840 67 0 0.0 2.0 0.00 0.00 0.00 68 1015.7
20260508232341 67 0 0.0 2.0 0.00 0.00 0.00 67 1015.6
20260508231838 68 0 0.0 2.0 0.00 0.00 0.00 67 1015.5
20260508231342 68 247 0.0 2.0 0.00 0.00 0.00 65 1015.3
20260508230840 68 0 0.0 2.0 0.00 0.00 0.00 65 1015.5
20260508230336 68 0 0.0 3.0 0.00 0.00 0.00 65 1015.2
20260508225840 68 176 0.0 4.0 0.00 0.00 0.00 64 1015.3
20260508225337 68 0 0.0 4.0 0.00 0.00 0.00 64 1015.4
20260508224835 68 229 0.0 3.0 0.00 0.00 0.00 64 1015.4
20260508224336 68 240 1.0 2.0 0.00 0.00 0.00 64 1015.2
20260508223836 69 217 1.0 2.0 0.00 0.00 0.00 64 1015.2
20260508223337 69 342 0.0 2.0 0.00 0.00 0.00 63 1015.7
20260508222838 69 0 0.0 3.0 0.00 0.00 0.00 63 1015.5
20260508222338 69 0 0.0 3.0 0.00 0.00 0.00 63 1015.6
20260508221835 69 0 0.0 2.0 0.00 0.00 0.00 64 1015.4
20260508221341 69 0 0.0 2.0 0.00 0.00 0.00 63 1015.4
20260508220841 70 288 1.0 2.0 0.00 0.00 0.00 62 1015.5
20260508220343 70 0 0.0 2.0 0.00 0.00 0.00 62 1015.5
20260508215836 70 0 0.0 2.0 0.00 0.00 0.00 61 1015.5
20260508215338 70 215 1.0 3.0 0.00 0.00 0.00 61 1015.6
20260508214840 70 229 1.0 3.0 0.00 0.00 0.00 61 1015.7
20260508214336 70 216 1.0 3.0 0.00 0.00 0.00 60 1015.6
20260508213840 70 218 1.0 2.0 0.00 0.00 0.00 61 1015.5
20260508213340 70 0 0.0 2.0 0.00 0.00 0.00 61 1015.5
20260508212839 70 216 1.0 2.0 0.00 0.00 0.00 60 1015.5
20260508212341 70 0 0.0 2.0 0.00 0.00 0.00 60 1015.4
20260508211840 70 235 0.0 2.0 0.00 0.00 0.00 58 1015.5
20260508211343 70 221 0.0 2.0 0.00 0.00 0.00 58 1015.6
20260508210840 70 238 1.0 3.0 0.00 0.00 0.00 58 1015.7
20260508210338 71 240 1.0 3.0 0.00 0.00 0.00 59 1015.6
20260508205841 71 235 2.0 3.0 0.00 0.00 0.00 56 1015.5
20260508205338 71 230 0.0 2.0 0.00 0.00 0.00 56 1015.5
20260508204838 71 0 0.0 2.0 0.00 0.00 0.00 59 1015.6
20260508204340 71 236 0.0 2.0 0.00 0.00 0.00 59 1015.6
20260508203836 71 0 0.0 2.0 0.00 0.00 0.00 57 1015.7
20260508203341 71 0 0.0 4.0 0.00 0.00 0.00 58 1015.7
20260508202840 71 258 1.0 5.0 0.00 0.00 0.00 54 1015.8
20260508202336 71 0 0.0 6.0 0.00 0.00 0.00 55 1015.7
20260508201840 71 245 1.0 6.0 0.00 0.00 0.00 54 1015.7
20260508201338 71 0 0.0 4.0 0.00 0.00 0.00 55 1015.5
20260508200839 71 241 1.0 4.0 0.00 0.00 0.00 54 1015.5
20260508200339 71 250 3.0 3.0 0.00 0.00 0.00 53 1015.6
20260508195842 71 255 2.0 3.0 0.00 0.00 0.00 53 1015.7
20260508195338 72 238 0.0 3.0 0.00 0.00 0.00 52 1015.8
20260508194842 72 200 1.0 1.0 0.00 0.00 0.00 53 1016.0
20260508194341 71 0 0.0 4.0 0.00 0.00 0.00 53 1016.1
20260508193834 71 236 1.0 5.0 0.00 0.00 0.00 53 1016.0
20260508193336 71 0 0.0 5.0 0.00 0.00 0.00 53 1016.1
20260508192835 72 257 5.0 4.0 0.00 0.00 0.00 52 1016.2
20260508192340 72 0 0.0 3.0 0.00 0.00 0.00 54 1016.3
20260508191841 72 231 1.0 2.0 0.00 0.00 0.00 53 1016.2
20260508191340 72 210 0.0 4.0 0.00 0.00 0.00 53 1016.4
20260508190840 72 210 1.0 4.0 0.00 0.00 0.00 53 1016.8
20260508190342 72 38 3.0 2.0 0.00 0.00 0.00 53 1016.6
20260508185842 72 184 1.0 2.0 0.00 0.00 0.00 51 1016.7
20260508185339 72 0 0.0 4.0 0.00 0.00 0.00 54 1016.7
20260508184837 71 206 2.0 5.0 0.00 0.00 0.00 54 1016.8
20260508184339 71 245 3.0 6.0 0.00 0.00 0.00 52 1016.8
20260508183841 71 0 0.0 6.0 0.00 0.00 0.00 54 1016.8
20260508183345 71 276 1.0 4.0 0.00 0.00 0.00 56 1016.9
20260508182840 72 257 4.0 4.0 0.00 0.00 0.00 54 1016.9
20260508182340 71 0 0.0 4.0 0.00 0.00 0.00 55 1017.1
20260508181839 72 161 1.0 3.0 0.00 0.00 0.00 53 1017.1
20260508181342 71 0 0.0 3.0 0.00 0.00 0.00 48 1017.1
20260508180839 71 82 2.0 3.0 0.00 0.00 0.00 57 1017.2
20260508180343 72 186 1.0 4.0 0.00 0.00 0.00 55 1017.2
20260508175839 72 241 3.0 4.0 0.00 0.00 0.00 55 1017.2
20260508175339 72 248 1.0 2.0 0.00 0.00 0.00 56 1017.2
20260508174838 71 217 1.0 2.0 0.00 0.00 0.00 55 1017.3